Satellite-Ground Cal/Val Region Overpasses Predictions

Prediction of Satellite NPP Overpassing Cal/Val Region: PacNW

Region Location: (Latitude: 10.00, Longitude: 139.50) to (Latitude: 22.70, Longitude: 165.60).

Table of predicted overpasses for the next 14.0 days since TLE Epoch: 1/23/2021
Interval Starting Time Starting Location Ending Time Ending Location
1 01/23/2021 14:45:25 ( 22.70, 163.47) 01/23/2021 14:49:01 ( 10.02, 160.45)
2 01/24/2021 03:36:01 ( 10.05, 145.61) 01/24/2021 03:39:36 ( 22.67, 142.61)
3 01/24/2021 14:29:31 ( 11.70, 165.60) 01/24/2021 14:29:59 ( 10.06, 165.22)
4 01/24/2021 16:07:54 ( 22.67, 142.84) 01/24/2021 16:11:29 ( 10.05, 139.84)
5 01/25/2021 03:16:59 ( 10.01, 150.37) 01/25/2021 03:20:35 ( 22.69, 147.36)
6 01/25/2021 15:48:52 ( 22.65, 147.60) 01/25/2021 15:52:27 ( 10.03, 144.59)
7 01/26/2021 02:57:57 ( 10.03, 155.13) 01/26/2021 03:01:32 ( 22.66, 152.12)
8 01/26/2021 15:29:50 ( 22.69, 152.36) 01/26/2021 15:33:26 ( 10.01, 149.35)
9 01/27/2021 02:38:56 ( 10.06, 159.88) 01/27/2021 02:42:31 ( 22.68, 156.88)
10 01/27/2021 15:10:48 ( 22.67, 157.11) 01/27/2021 15:14:23 ( 10.05, 154.11)
11 01/28/2021 02:19:53 ( 10.02, 164.64) 01/28/2021 02:23:28 ( 22.64, 161.64)
12 01/28/2021 14:51:47 ( 22.64, 161.86) 01/28/2021 14:55:22 ( 10.02, 158.86)
13 01/29/2021 03:42:22 ( 10.05, 144.02) 01/29/2021 03:45:57 ( 22.67, 141.02)
14 01/29/2021 14:33:56 ( 18.46, 165.59) 01/29/2021 14:36:20 ( 10.00, 163.62)
15 01/29/2021 16:14:14 ( 22.67, 141.26) 01/29/2021 16:16:17 ( 15.46, 139.51)
16 01/30/2021 03:23:19 ( 10.01, 148.78) 01/30/2021 03:26:55 ( 22.70, 145.77)
17 01/30/2021 15:55:13 ( 22.65, 146.01) 01/30/2021 15:58:48 ( 10.03, 143.01)
18 01/31/2021 03:04:18 ( 10.04, 153.54) 01/31/2021 03:07:53 ( 22.66, 150.53)
19 01/31/2021 15:36:10 ( 22.69, 150.77) 01/31/2021 15:39:46 ( 10.01, 147.76)
20 02/01/2021 02:45:15 ( 10.00, 158.30) 02/01/2021 02:48:51 ( 22.69, 155.28)
21 02/01/2021 15:17:09 ( 22.66, 155.52) 02/01/2021 15:20:44 ( 10.04, 152.52)
22 02/02/2021 02:26:14 ( 10.03, 163.05) 02/02/2021 02:29:49 ( 22.65, 160.05)
23 02/02/2021 14:58:07 ( 22.70, 160.29) 02/02/2021 15:01:43 ( 10.02, 157.27)
24 02/03/2021 02:09:52 ( 19.45, 165.60) 02/03/2021 02:10:47 ( 22.68, 164.80)
25 02/03/2021 03:48:41 ( 10.00, 142.44) 02/03/2021 03:52:11 ( 22.33, 139.51)
26 02/03/2021 14:39:05 ( 22.67, 165.04) 02/03/2021 14:42:40 ( 10.05, 162.04)
27 02/03/2021 16:20:35 ( 22.67, 139.66) 02/03/2021 16:20:46 ( 22.02, 139.50)
28 02/04/2021 03:29:40 ( 10.03, 147.19) 02/04/2021 03:33:15 ( 22.65, 144.19)
29 02/04/2021 16:01:33 ( 22.70, 144.43) 02/04/2021 16:05:09 ( 10.02, 141.41)
30 02/05/2021 03:10:38 ( 10.05, 151.94) 02/05/2021 03:14:13 ( 22.68, 148.94)
31 02/05/2021 15:42:31 ( 22.67, 149.18) 02/05/2021 15:46:06 ( 10.05, 146.18)
